Location: Eaton Estates
(41.3089°N, 82.0057°W)
Time: 01:14:54
(UTC+00:00)

FALCON 9 DEB - Pass Details

Date: 17 June 2021
Orbit: 358 x 373 km, 53.0° (Epoch: 02 August)

Event Time Altitude Azimuth Distance (km) Brightness Sun altitude
Exits shadow 03:56:55 38° 23° (NNE) 604 4.1 -21.9°
Drops below altitude 10° 03:59:05 10° 45° (NE) 1,398 6.0 -22.0°
Sets 04:01:10 0° 50° (NE) 2,251 7.0 -22.2°
